GFSFLT1_con_mlcape_000.txt.gz
CAPE
132 201 301 335 258 238 299 362 420 493 583 703 856 1247 1438 1618 1649 1373 1147 394 38 98 0 0 0 0 0 0 0 0 0 0 0
103 141 288 440 389 351 419 469 573 606 682 877 908 1154 1414 1325 1592 1420 1375 99 0 0 0 0 0 0 0 0 0 0 0 0 0
56 90 249 368 526 558 609 620 706 797 768 859 944 1090 1023 1069 1293 1318 474 0 0 0 0 0 0 0 0 0 0 0 0 0 0
4 33 118 274 581 725 778 731 741 933 890 1063 1085 1001 851 710 920 786 1 0 0 0 0 0 0 0 0 0 0 0 0 0 0
0 11 79 146 485 728 840 805 801 984 1070 1109 1191 1049 801 539 535 305 0 0 0 0 0 0 0 0 0 0 0 0 0 0 0
0 4 33 87 287 583 742 775 920 1048 1209 1137 1196 1107 638 459 341 257 22 0 0 0 0 0 0 0 0 0 0 0 0 0 0
0 6 29 79 124 308 476 556 720 1016 1214 1230 1159 868 614 541 409 335 41 0 0 0 0 0 0 0 0 0 0 0 0 0 0
7 0 5 52 104 161 287 383 463 669 920 1100 1051 833 612 647 500 189 8 12 2 0 2 15 5 0 0 0 0 0 0 0 0
3 17 24 27 62 130 186 216 281 500 741 902 988 858 726 572 218 79 0 18 71 58 171 89 23 3 0 0 0 2 0 19 23
26 36 36 46 23 31 26 48 164 346 577 824 957 919 839 546 155 77 11 3 0 109 204 93 6 4 4 9 22 16 22 35 37
0 2 33 35 23 12 2 2 90 231 446 696 884 930 907 484 278 59 0 0 0 62 1 0 2 19 43 24 85 69 46 74 28
0 0 29 73 84 55 11 54 197 349 513 713 841 930 880 585 354 254 127 0 0 3 2 17 47 97 120 93 102 136 133 41 46
0 4 33 16 29 43 16 113 329 421 620 798 867 854 832 652 395 200 45 0 0 0 14 24 43 96 95 79 89 133 22 50 39
8 41 104 141 197 270 248 265 408 299 508 708 787 687 662 677 536 151 9 0 0 1 18 26 56 14 0 5 6 46 44 7 41
0 0 0 5 5 11 80 244 511 466 500 613 617 561 475 391 419 301 20 0 0 0 0 1 1 4 0 0 0 0 0 13 6
0 32 81 232 229 200 185 317 601 458 529 544 503 376 293 192 55 23 0 3 0 0 0 0 8 10 7 14 0 0 0 0 0
1 47 77 226 349 390 510 479 469 524 467 433 367 277 73 3 0 0 0 0 0 0 0 0 0 0 49 31 0 0 0 0 0
279 323 288 319 393 351 539 477 506 470 397 280 250 77 28 13 0 0 0 0 0 0 0 0 10 52 17 0 2 0 0 0 0
408 501 454 460 494 526 533 520 547 315 194 222 101 42 11 0 0 0 0 0 0 0 0 0 0 0 0 0 0 0 0 0 0
0 65 424 640 529 418 420 266 192 46 9 0 3 10 0 0 0 0 0 0 0 0 0 0 0 0 0 0 0 0 0 0 0

GFSFLT1_con_mlcape_003.txt.gz
CAPE
84 96 134 203 296 377 392 481 557 672 800 900 1164 1239 1415 1773 1917 2140 2257 1869 1313 844 596 510 96 0 0 63 1 0 0 0 0
88 161 184 223 351 422 474 532 642 723 809 887 1026 1178 1405 1644 1949 2155 2202 1955 1516 1116 522 320 50 0 7 17 0 0 0 0 0
91 176 296 402 501 496 544 664 791 888 919 977 1032 1212 1470 1628 2018 2150 2210 2154 1656 820 358 155 62 1 5 0 0 0 0 0 0
55 174 219 423 702 628 617 756 876 1022 1042 1100 1162 1211 1421 1639 1820 1978 2089 1904 1809 643 194 120 34 20 5 6 8 3 0 0 0
13 120 171 505 763 786 772 836 900 1015 1187 1212 1309 1290 1387 1470 1802 1369 903 1273 775 65 36 97 25 40 35 38 76 82 20 0 0
4 30 136 434 729 911 945 989 1045 1108 1294 1373 1475 1537 1480 1432 1379 1100 1180 637 354 0 0 0 58 40 22 34 74 141 162 3 0
6 30 85 281 474 760 919 1084 1141 1164 1313 1480 1586 1597 1655 1463 1077 977 544 320 28 0 3 31 20 2 9 41 107 104 47 0 0
1 40 67 191 218 407 788 1116 1183 1228 1313 1456 1582 1675 1724 1474 1077 682 271 163 2 0 0 0 0 0 0 16 59 44 3 9 63
26 50 72 172 238 401 532 698 795 980 1205 1419 1575 1623 1565 1255 886 400 233 111 0 0 0 0 0 0 0 23 58 30 9 26 209
81 115 146 181 265 399 461 513 649 647 813 1042 1241 1321 1352 1044 643 370 241 112 2 0 0 0 0 3 44 115 108 82 38 38 185
86 211 292 232 150 183 183 176 284 421 700 873 1084 1215 1219 940 581 479 283 173 38 0 0 0 4 22 234 240 260 161 63 36 197
0 19 62 161 148 103 53 60 159 352 519 679 930 1084 1207 803 534 560 393 246 96 0 0 0 7 62 86 124 206 41 51 95 116
0 66 221 213 113 45 56 73 152 170 299 587 879 1232 1212 809 571 477 448 433 317 128 25 6 28 45 60 100 154 56 75 7 27
163 192 225 188 128 78 105 309 347 311 481 601 1084 1176 1063 811 714 671 525 488 254 41 9 19 41 81 170 120 147 114 29 0 29
108 98 188 338 243 307 361 379 305 284 448 808 990 1053 947 890 731 594 440 292 86 46 91 128 130 211 204 31 69 0 0 1 20
198 305 313 427 389 423 489 557 629 345 542 624 851 881 878 776 693 386 266 233 161 85 71 69 95 99 38 43 51 11 0 1 0
115 395 496 815 823 682 630 696 627 678 571 743 767 767 693 648 691 544 341 219 59 15 4 9 0 0 15 83 38 7 0 0 0
576 560 489 602 562 625 864 838 826 719 772 767 849 727 726 612 631 414 296 82 1 0 0 0 7 15 128 253 135 23 0 0 0
600 834 1116 1019 944 668 666 821 791 732 736 757 798 710 614 428 178 38 0 0 0 0 0 0 0 0 97 0 14 0 0 0 0
0 27 263 962 1051 775 733 724 689 639 524 477 456 302 240 111 118 114 66 0 0 0 0 0 0 0 0 0 0 0 0 0 0

GFSFLT1_con_mlcape_006.txt.gz
CAPE
171 337 113 97 218 394 676 820 979 1210 1455 2062 2386 2401 2505 2689 2710 2443 2130 1899 972 481 240 124 208 1190 354 110 62 66 0 0 0
97 276 256 99 217 367 574 784 1056 1340 1676 2014 2182 2237 2425 2669 2814 2616 1843 1651 1843 954 672 170 630 715 351 69 106 12 0 0 1
115 238 310 185 221 348 531 776 976 1317 1597 1893 2080 2081 2237 2329 2480 2659 2459 2232 1989 1274 1144 952 521 488 147 47 57 4 12 0 0
83 174 421 405 323 353 622 691 827 1192 1555 1799 2024 2057 2135 2111 2137 2278 2612 2549 2678 2408 2015 1147 660 489 151 105 70 12 9 6 0
0 107 373 578 577 616 643 828 747 886 1173 1587 1903 2009 2273 2165 2132 2178 2390 2826 2611 2120 2210 813 633 387 187 112 77 45 90 26 0
41 217 437 688 744 880 963 939 1040 1068 1346 1523 1678 1963 2143 2142 2065 2240 2276 2584 2300 2296 1263 43 55 0 15 123 93 58 98 142 88
72 389 501 765 804 1064 1196 1224 1514 1566 1461 1609 1771 1872 2197 2335 2256 2142 2343 2270 1467 952 146 0 0 0 0 0 149 122 117 131 148
75 426 381 817 1017 1327 1631 1578 1704 1841 1866 1825 1852 2046 2152 2395 2495 2473 2274 1876 1062 531 0 0 0 0 0 0 103 64 65 104 55
62 535 375 939 1211 1438 1780 1823 1999 2109 2121 2002 2114 2231 2352 2372 2654 2518 2090 1507 735 543 5 0 0 0 0 0 0 0 0 40 66
68 474 456 785 1157 1387 1795 1898 2134 2139 2126 2099 2156 2332 2395 2500 2603 2285 1864 1294 892 521 42 0 0 0 0 0 39 5 0 17 31
87 545 735 820 979 1333 1505 1498 1621 1652 1841 1940 2078 2290 2321 2386 2262 2033 1701 1292 901 545 92 0 21 115 46 3 23 133 48 23 139
260 666 969 990 993 1187 1236 1043 1269 1363 1527 1714 1885 2078 2132 2106 1917 1728 1411 1183 1024 835 417 171 339 417 284 212 254 203 80 74 183
132 527 691 787 710 921 887 822 960 1165 1308 1621 1798 2023 2083 2003 1715 1680 1464 1267 1251 824 716 571 383 447 407 378 596 70 42 65 280
409 654 826 866 784 637 721 795 987 1082 1257 1369 1671 1966 2125 1871 1682 1761 1730 1462 1129 962 749 534 624 500 415 474 162 486 45 0 141
844 716 619 528 740 1027 1176 1209 1374 1249 1350 1877 2049 2136 2092 1763 1678 1509 1539 1209 919 608 565 680 587 471 600 589 843 463 57 15 19
559 532 516 648 1007 1342 1578 1793 1819 1793 2238 2050 2077 1727 1606 1560 1548 1245 954 825 593 596 607 736 655 598 683 628 739 63 0 0 0
780 919 817 841 962 1038 1109 1444 1559 1856 1338 1583 1732 1350 1475 1290 1075 1093 800 789 780 894 835 734 739 743 378 114 203 125 21 0 0
867 965 925 855 951 1367 1370 1603 1674 1618 1486 1369 1369 1301 1349 1136 922 795 970 589 306 599 119 168 268 264 0 12 210 347 131 50 65
1358 1285 1341 1477 1546 1779 1887 1884 1782 1747 1502 1569 1571 1205 1091 977 992 1024 1011 494 46 0 0 0 0 0 59 29 66 0 0 0 0
89 389 928 1825 1616 1731 1668 1706 1661 1622 1615 1438 1190 1009 930 758 662 509 553 491 184 25 0 0 0 0 0 0 0 0 0 0 0

GFSFLT1_con_mlcape_009.txt.gz
CAPE
58 291 381 128 253 543 941 923 1367 1551 2044 3010 3262 2933 2886 2925 2824 1936 1459 1581 1411 771 479 426 1361 1124 784 380 73 153 94 8 0
23 78 299 231 153 314 613 782 1287 1566 1991 2642 2967 2592 3253 3151 3012 2698 1574 1508 1797 1433 753 410 292 967 680 422 54 151 37 0 24
6 14 196 342 213 254 425 687 1082 1532 1947 2511 2480 2576 2963 2993 2993 3206 2783 2752 2257 1748 1109 750 611 966 719 316 90 201 72 10 0
13 23 108 389 332 287 371 495 757 1258 1623 2090 2471 2551 2541 2655 2712 2851 3084 2888 2530 2514 1627 1634 880 1137 732 167 145 143 106 79 6
1 10 71 277 424 382 418 502 509 782 1045 1324 2062 2338 2711 2793 2772 2783 2773 3107 3019 2759 2148 2041 1333 1018 806 182 88 53 118 100 37
0 26 38 172 414 437 582 581 619 473 887 860 1308 2064 2403 2720 2616 2871 2746 3067 3008 3124 2960 2413 1582 1119 863 187 122 102 129 128 91
0 39 216 160 479 599 791 906 944 765 728 623 1017 1549 1701 2334 2760 2795 2760 2970 3079 3188 2980 2675 1592 1041 752 248 226 121 142 139 175
0 0 280 519 727 1094 1394 1371 1503 1349 1055 1121 1200 1714 1900 2299 2912 2838 2760 2720 3184 3197 3004 2569 1585 839 470 412 122 138 248 58 51
0 0 4 638 920 1089 1820 1839 2187 2028 1770 1870 1790 2324 2366 2717 3287 3118 3011 3037 3248 3112 2693 2203 1292 514 108 12 0 0 5 92 1
0 0 0 465 904 1245 1732 1858 2299 2443 2482 2230 2307 2597 3049 3072 3578 3515 3576 3376 3084 2687 2013 1627 774 246 0 0 27 2 2 0 7
0 0 0 130 819 1412 1944 1949 2031 2256 2557 2790 2966 3098 3082 3340 3504 3700 3609 3256 2779 2129 1733 1398 712 194 4 95 118 29 0 0 10
0 0 3 311 1071 1511 2176 2141 2380 2620 2609 2851 2913 3001 3104 3237 3289 3455 3202 2841 2479 1812 1587 1435 720 258 80 383 488 165 10 23 60
197 258 49 778 1274 1651 2239 2308 2331 2434 2443 2554 2670 2851 2911 3013 3136 3003 2744 2494 2161 1827 1764 1336 934 502 555 765 790 378 109 150 314
271 324 941 1485 1531 2179 2176 2127 1984 2192 2147 2141 2122 2296 2495 2742 2737 2676 2441 2112 2023 1917 1638 1294 895 625 738 920 863 675 209 128 362
627 827 1238 1395 1623 1851 1827 1843 1908 1900 1909 2132 2344 2463 2557 2677 2554 2322 2203 1914 1994 1722 1304 1156 1121 981 1156 1078 939 597 178 11 19
1465 1425 1457 1395 1403 1447 1350 1700 1948 2121 2524 2514 2574 2651 2780 2518 2100 1903 1968 1900 1747 1222 1076 827 998 855 1101 1111 950 668 34 1 0
888 893 1046 1148 1309 1664 2005 2007 2112 2987 2858 2764 2822 2462 1976 1852 1619 1575 1294 1321 1047 801 720 868 1083 1116 1063 1036 816 556 67 0 0
995 981 1042 1171 1440 1686 1901 2166 2408 2132 2423 2562 2268 2313 2017 1676 1476 1281 934 655 611 826 287 498 777 766 860 544 95 10 20 5 11
1065 1025 1131 1370 1397 1691 1984 2145 2141 2130 2116 2198 2019 2016 1765 1409 1169 1044 843 504 37 0 0 0 0 0 32 24 5 0 0 0 0
674 1110 1078 1181 1330 1701 2021 2111 2171 2051 2088 2136 1977 1457 1339 1047 1092 1010 1102 722 664 342 0 0 0 0 0 0 0 0 0 0 0

GFSFLT1_con_mlcape_012.txt.gz
CAPE
160 415 317 292 359 621 1031 1030 1313 1754 2409 2735 3113 2676 3267 2668 2045 2571 1935 1572 1492 1514 948 644 1256 828 859 688 225 158 250 254 59
110 364 423 233 543 589 1041 1106 1244 1644 2505 2959 3337 3254 3250 3114 2509 2638 2731 1710 1662 2015 999 1225 1202 968 1413 626 556 360 371 104 61
11 8 457 471 332 810 1003 1238 1283 1710 2102 3041 3562 3481 3324 3305 3439 2628 2202 1895 1824 1470 1760 771 1446 1302 1155 876 421 301 368 73 183
0 0 89 410 465 491 948 1344 1395 1705 1960 2867 3449 3524 3349 3318 3298 3275 2437 2900 2184 2539 1505 1335 1413 1332 1195 934 604 359 300 53 21
2 0 19 124 548 484 722 1035 1274 1627 2021 2511 3129 3339 3233 3304 3367 3378 3283 2499 3087 2561 2755 2048 1092 1289 1276 1045 503 350 243 5 10
5 1 7 142 334 545 634 772 1029 1465 1820 2232 2914 3069 3045 3206 3189 3376 3289 3369 2747 3384 2680 2363 1781 1556 1290 1179 496 448 316 86 54
9 22 13 309 267 753 690 793 975 1288 1663 1941 2403 2814 2854 2926 3084 3174 3088 3298 3480 3036 3188 2753 2404 1844 1584 1358 646 447 242 343 358
0 22 187 109 303 606 865 1017 1077 1124 1285 1472 1654 2285 2646 2884 3151 3138 3162 3110 3442 3500 3360 3361 2932 2467 1861 1577 803 513 540 514 425
0 0 16 311 222 934 1452 1308 1243 1195 1130 1279 1370 1637 2230 2527 2935 3304 3165 3291 3180 3579 3510 3664 3292 2781 1929 1580 870 256 271 397 473
67 21 0 215 724 902 1626 1965 1607 1365 1244 1366 1280 1619 2085 2215 2652 3179 3379 3293 3290 3396 3601 3513 3252 2943 1926 1328 730 25 1 141 314
2 26 0 0 210 1205 1390 2226 2165 2011 1725 1585 1548 2035 2269 2519 2954 3386 3488 3464 3422 3556 3665 3469 3057 2531 1647 751 282 76 9 2 4
0 0 187 18 0 1106 1509 2120 2139 2603 2346 1951 2561 2268 3416 3004 4172 4133 4058 4026 3966 3822 3462 2875 2383 1818 889 298 183 39 22 4 0
0 0 0 18 27 1294 1761 2295 2443 2623 2918 2787 2404 3255 3344 4021 4147 4407 4361 4150 3798 3080 2498 2120 1801 1285 749 319 278 458 235 59 98
239 4 11 220 1623 1863 2203 2615 2810 2824 3055 3295 3289 3710 3739 3861 4009 4147 4085 3719 2990 2308 1986 1988 1568 1059 692 567 355 711 416 167 265
642 476 393 1209 2081 2500 3028 2867 3064 3258 3219 3466 3552 3611 3669 3746 3797 3484 3263 2793 2262 2163 1924 1664 1382 973 744 719 819 473 324 103 127
105 736 1690 2099 2993 3078 3030 3208 3126 3078 3053 2924 3013 3081 3350 3410 3141 2857 2643 2259 1998 1926 1731 1325 1078 1155 1069 925 740 762 222 70 0
1810 1907 2014 2369 2398 2545 2636 2749 2905 3077 3058 3166 3176 3269 3076 2782 2409 2258 2112 2043 1969 1572 1340 1127 1130 1123 1119 927 1026 719 267 110 0
1938 1942 2021 2097 2218 2608 2844 3425 3185 3228 3343 3271 2883 2639 2382 2043 1745 1635 1418 762 887 1138 341 586 1125 958 865 791 765 750 264 0 0
1881 2026 2159 2272 2453 2706 2836 2759 2780 2991 3011 2457 2258 2090 1854 1549 1466 1170 734 468 138 0 0 0 0 12 587 8 42 0 0 0 0
1320 1566 1879 2001 2372 2544 2512 2542 2431 2502 2745 2638 2325 1853 1771 1675 1328 1231 854 571 393 119 0 0 0 0 0 0 0 0 0 0 0

GFSFLT1_con_mlcape_015.txt.gz
CAPE
15 2 29 4 106 389 662 740 1156 1624 1754 1650 1852 1968 1709 1317 1955 1575 1101 981 1852 1370 1265 1331 1125 880 462 245 23 319 148 148 61
55 16 6 40 89 324 649 737 1235 1449 2167 2004 2098 2210 2190 1881 1592 1891 1690 1356 1342 1598 1269 1362 1248 818 518 262 138 8 282 178 45
15 5 12 60 84 319 620 767 1132 1428 2111 2203 2298 2113 2457 2258 1940 1804 1701 2020 1534 1427 1310 1100 996 992 633 520 252 120 185 139 84
43 36 47 95 141 358 709 908 1174 1442 1894 2398 2463 2567 2379 2618 2212 2247 1820 1912 2117 1272 1599 1124 925 1016 867 614 430 227 202 136 57
31 3 51 137 279 380 877 1042 1076 1408 2171 2388 2579 2710 2716 2705 2627 2591 2305 1854 2091 1775 1394 1515 1269 1005 998 848 548 296 194 124 91
15 7 134 415 285 629 976 1132 1098 1464 1996 2580 2831 3013 3007 2899 2719 2862 2674 2263 2097 2140 1796 1596 1469 1288 970 864 718 451 306 157 71
0 25 0 167 406 609 943 1232 1228 1359 1829 2542 2917 3199 3130 2998 2830 2705 2835 2918 2250 2236 2761 2234 1664 1345 1137 917 779 533 422 260 125
6 1 11 45 507 499 928 1209 1313 1413 1706 1939 2769 2982 3116 2932 2904 2910 2995 2957 3080 2512 2422 2792 2411 1783 1311 1119 862 593 497 324 172
5 0 27 166 419 575 608 886 1128 1419 1611 1916 2246 2777 2892 2888 2870 2958 2997 3091 3019 3189 2840 2706 2715 2361 1805 1486 1248 842 613 421 331
25 7 170 374 417 669 700 758 949 1257 1550 1718 1997 2354 2734 2769 2699 2885 2962 3040 3025 3158 3306 3165 3139 2850 2371 1871 1589 843 489 448 374
0 1 45 84 169 980 998 980 943 1145 1397 1725 1825 1897 2422 2557 2707 2674 2998 3078 3153 3116 3331 3355 3368 3158 2775 2291 1550 792 450 203 277
0 0 10 0 422 429 1774 1442 1124 1126 1234 1519 1583 1648 1851 2262 2397 2713 2990 3194 3220 3241 3339 3417 3313 2850 2410 1957 1232 618 120 8 11
0 0 0 0 0 229 632 1763 1729 1337 1261 1377 1343 1418 1728 2051 2205 2641 3079 3273 3290 3405 3350 3007 2794 2498 1994 1283 864 267 177 16 3
498 200 0 0 0 373 818 1634 2148 1889 1590 1363 1733 1411 2607 2384 2769 3358 3446 3573 3446 3117 2712 2668 2426 1900 1113 712 629 403 153 36 79
308 362 881 38 117 236 860 1917 2349 2538 2195 2101 2133 3272 3014 3816 4003 4189 3742 3558 2827 2513 2477 2089 1566 1289 1038 739 502 387 216 330 246
173 1007 1528 2320 1589 1610 2280 2467 2666 2920 3467 3301 3149 3380 3837 3858 3772 3541 3310 2805 2288 2023 1807 1633 1405 1195 925 769 782 564 405 210 51
1716 1824 1953 2739 3097 3204 3179 3242 3292 3356 3466 3497 3532 3481 3352 3154 3017 2675 2297 1931 1742 1649 1509 1352 1138 878 846 843 655 461 237 33 0
2210 2436 2542 2661 2913 3118 3259 3345 3309 3284 3359 3308 3197 2888 2587 2469 2292 1839 1113 541 873 1146 483 740 840 931 942 778 634 624 321 6 0
527 714 2278 2850 3048 3112 3171 3159 3110 2970 2821 2783 2489 2179 1995 1905 1420 1018 772 623 318 0 16 9 271 789 575 128 422 323 8 0 0
0 3 30 2466 2782 2870 2919 2875 2793 2557 2334 2302 2247 2072 1789 1556 1211 970 805 623 532 339 0 0 0 16 17 1 2 0 0 0 0

GFSFLT1_con_mlcape_018.txt.gz
CAPE
0 13 25 8 19 113 115 234 561 892 811 742 1046 1220 1212 1186 1143 990 725 487 768 1116 1141 1289 1169 975 707 425 125 0 0 5 0
0 4 0 0 9 86 183 258 635 844 994 952 1141 1155 1186 1243 1217 1089 891 923 1256 1257 1279 1173 1035 955 851 468 120 48 26 49 11
13 5 5 2 0 110 266 241 671 962 1181 1103 1243 1390 1292 1240 1334 1421 1195 1180 1167 1163 1389 1294 1047 1032 831 433 179 72 34 32 67
59 75 43 26 37 67 196 364 713 1141 1285 1291 1464 1646 1620 1516 1289 1259 1522 1468 1454 1267 1205 1223 1110 964 733 478 243 114 54 20 53
91 106 53 39 61 60 163 490 747 1097 1520 1479 1534 1715 1816 1767 1667 1600 1370 1365 1485 1556 1509 1143 1157 1062 835 585 408 229 118 89 50
70 84 22 15 13 54 211 512 713 1159 1484 1703 1823 1882 1936 2113 1992 1929 1794 1478 1529 1560 1526 1387 1144 955 906 704 601 400 301 191 55
23 23 11 5 45 73 292 580 728 1143 1334 1942 1999 2197 2038 2078 2207 2089 2075 1955 1692 1686 1616 1569 1387 1163 1077 934 654 494 458 324 170
94 22 0 4 9 148 383 713 838 1112 1427 1810 2124 2261 2376 2192 2257 2356 2348 2304 2075 1849 1842 1741 1625 1389 1261 1036 899 705 563 407 280
0 23 21 0 14 164 290 705 917 1032 1346 1990 2237 2395 2402 2590 2482 2458 2448 2571 2532 2176 2016 2132 1912 1635 1503 1368 1115 897 663 586 430
0 0 0 0 42 237 457 766 948 1045 1407 1902 2400 2408 2655 2758 2706 2604 2559 2586 2659 2691 2381 2207 2185 2091 2010 1824 1548 1192 824 604 489
0 0 0 17 118 323 611 820 1048 1104 1336 1733 2294 2493 2641 2866 2751 2676 2693 2730 2740 2751 2835 2593 2481 2330 2160 2141 1956 1510 1025 659 534
0 0 0 0 396 428 530 783 1018 1171 1328 1690 1909 2353 2513 2687 2724 2628 2722 2662 2755 2808 2929 2949 2854 2874 2620 2393 1648 1506 1057 792 550
0 0 0 0 27 328 686 708 761 1020 1241 1531 1747 1959 2261 2550 2626 2573 2625 2743 2785 2844 2941 2926 3019 2943 2739 2450 1746 1117 1064 721 431
54 0 0 0 0 87 944 889 745 768 969 1212 1491 1829 1967 2348 2542 2532 2559 2796 2861 2923 2956 2937 2714 2480 2026 1681 1747 1035 670 226 133
108 196 46 0 0 0 38 632 1057 915 891 962 1295 1563 1630 1789 2210 2347 2606 2842 2941 2907 2779 2643 2196 1763 1737 1641 1078 786 403 147 42
325 759 997 791 19 0 0 262 695 852 1029 1089 1258 1289 1574 1762 2000 2386 2782 2807 2664 2570 2452 2144 1760 1549 1507 988 587 347 197 71 30
1468 1738 1985 2458 2341 663 561 707 1594 1137 1341 1538 1653 1724 2324 2615 2564 2689 2676 2476 2316 2276 2031 1769 1565 1318 1021 734 625 419 142 50 2
785 781 563 622 1754 2716 2521 2096 2413 2666 2269 2488 2456 2629 2538 2575 2114 1991 1304 630 1094 1370 1214 1443 1261 909 764 695 620 493 270 139 30
0 2 14 82 0 266 606 311 2802 3068 2792 2562 2456 2453 2123 1274 1001 590 397 601 48 0 23 481 661 638 642 397 526 414 199 2 0
12 37 0 0 0 0 3 0 0 2432 2213 2378 2415 1993 1320 1039 866 542 355 418 253 252 2 2 219 556 574 454 194 7 0 0 0

GFSFLT1_con_mlcape_021.txt.gz
CAPE
0 0 3 21 55 64 148 185 429 512 470 679 847 817 797 751 741 594 530 504 543 490 692 1003 1252 1213 1024 738 209 82 46 0 0
0 0 0 9 26 13 72 108 228 454 439 539 971 973 945 839 759 697 636 621 652 679 532 1121 1178 1196 1080 734 371 98 38 0 0
0 0 1 5 5 28 43 100 112 398 493 458 646 999 997 894 803 817 787 760 786 653 527 1038 998 1121 1071 691 406 176 51 2 0
0 0 0 0 18 18 34 59 70 292 557 559 540 851 987 972 895 960 907 879 838 790 853 1084 1119 1070 1022 676 468 256 135 59 0
0 0 0 4 33 31 38 76 98 336 549 670 670 809 923 953 982 1086 1065 967 964 837 873 1078 1141 1124 971 719 604 394 248 146 35
0 0 0 0 1 0 7 42 157 429 637 777 867 922 1060 1059 1028 1025 1108 1194 1194 1121 970 1168 1042 1034 1076 842 691 500 223 175 135
0 0 0 0 0 1 13 13 159 429 769 913 1036 1166 1255 1274 1271 1186 1089 1176 1276 1318 1203 1134 1209 1151 1034 1014 848 633 414 261 203
0 0 0 0 0 0 0 7 188 448 767 1116 1194 1274 1451 1411 1483 1458 1445 1370 1261 1277 1287 1310 1141 1165 1154 1044 894 760 619 484 394
0 0 0 0 16 41 4 21 157 378 762 1120 1423 1441 1506 1631 1698 1687 1698 1723 1619 1498 1410 1408 1264 1176 1125 1137 1128 895 730 656 567
0 0 0 0 0 6 14 24 221 402 700 1076 1582 1613 1707 1774 1781 1804 1874 1941 1922 1792 1666 1621 1415 1353 1309 1181 1396 1137 1006 753 648
0 0 0 0 0 0 1 109 289 511 789 1143 1473 1737 1890 2051 2005 1891 2015 2109 2104 2080 1895 1825 1795 1528 1436 1431 1468 1280 1039 971 790
0 0 0 0 0 0 32 156 340 734 927 1107 1606 1802 1959 2134 2264 2206 2150 2118 2159 2288 2236 1952 1977 1822 1671 1688 1732 1544 1507 1116 839
0 0 0 0 0 0 28 216 555 854 982 1226 1495 1843 2007 2249 2396 2385 2320 2244 2256 2318 2404 2357 2117 2149 2093 2036 2069 1753 1621 1376 1077
0 0 0 0 0 0 147 419 796 979 1070 1162 1394 1835 2110 2349 2546 2516 2444 2403 2389 2469 2504 2598 2499 2511 2413 2294 2234 1731 965 1204 1210
94 570 861 740 0 0 263 383 697 898 1074 1112 1313 1562 1883 2188 2351 2568 2446 2459 2484 2601 2651 2741 2796 2575 2350 2269 1749 1106 680 1250 872
53 369 1139 1651 1454 1147 137 20 680 728 876 1125 1308 1404 1578 1770 2206 2420 2416 2474 2515 2619 2672 2727 2273 2258 2228 1728 1156 755 696 726 225
337 298 418 1246 1237 805 780 1270 1001 873 862 852 1111 1328 1408 1554 1951 2295 2332 2496 2607 2664 2719 2445 2078 1925 1709 1294 1045 632 185 107 0
155 169 57 161 878 1553 1572 807 915 832 1127 1187 936 1113 1296 1398 1739 2133 2415 1804 2242 2547 1841 1754 1496 1171 956 1070 628 399 203 47 6
2 7 0 0 0 0 0 16 25 345 990 2021 1302 1072 1358 1705 1924 1282 1037 1102 775 72 303 729 418 526 135 218 194 178 133 41 10
5 16 0 0 0 0 0 9 14 0 1 1747 2468 2032 1696 1142 822 947 998 891 743 272 2 3 0 0 138 253 99 98 39 0 0

GFSFLT1_con_mlcape_024.txt.gz
CAPE
14 72 193 251 229 109 116 146 158 246 326 337 374 332 306 320 284 268 251 249 283 224 318 763 925 997 972 811 605 364 121 4 0
0 0 0 42 177 126 56 101 140 231 342 365 401 417 360 322 349 343 318 310 346 395 542 647 844 844 952 880 680 504 203 49 17
0 0 0 0 4 28 37 50 119 206 322 335 410 494 491 452 447 453 433 403 430 438 518 673 702 735 1007 947 756 524 278 114 50
0 0 0 0 0 3 4 11 46 162 288 356 388 597 628 630 601 597 514 472 525 543 567 666 810 671 953 899 819 625 428 179 96
0 0 0 0 0 0 5 2 13 63 253 336 363 650 793 797 755 735 625 564 605 638 652 719 806 624 909 923 709 709 627 465 215
0 0 0 0 0 0 0 0 2 29 149 350 397 454 832 912 883 812 765 680 710 682 801 853 836 712 858 952 895 692 628 551 502
0 0 0 0 0 0 0 0 7 18 121 303 497 519 675 855 918 893 863 846 820 770 849 893 957 895 1029 1031 1014 824 680 579 630
0 0 0 0 0 0 0 0 4 37 155 287 522 617 679 852 930 965 975 1029 983 985 957 982 1002 915 953 1047 956 935 846 662 678
0 0 0 0 0 0 0 0 46 121 214 398 569 692 723 904 1065 1046 1005 1010 1102 1116 1157 1180 1087 1054 940 1067 1112 921 760 913 825
0 0 0 0 0 0 0 26 110 186 301 556 739 797 924 1077 1206 1246 1219 1189 1103 1080 1118 1217 1191 1176 1102 1001 1196 1024 893 845 934
0 0 0 0 0 0 0 26 35 173 338 623 801 987 1047 1259 1412 1453 1483 1487 1367 1278 1228 1178 1243 1225 1211 1145 1107 997 890 843 984
0 0 0 0 0 0 0 0 23 146 340 581 842 1107 1202 1353 1536 1598 1626 1645 1622 1630 1558 1430 1398 1356 1288 1338 1283 936 825 806 970
0 0 0 0 0 0 0 0 0 129 352 593 696 1113 1327 1528 1623 1629 1690 1777 1856 1870 1837 1707 1608 1514 1455 1481 1535 1058 915 935 1160
0 0 0 0 0 0 0 0 0 53 227 395 651 1063 1528 1773 1864 1826 1830 1913 2118 2130 2144 2010 1779 1698 1604 1662 1626 1393 1066 1009 1363
285 491 783 279 0 0 0 0 66 215 340 501 821 1163 1497 1715 1967 2129 2164 2086 2167 2163 2271 2225 2040 1852 1890 1868 1819 1750 954 981 1426
252 844 1238 1374 906 702 238 0 247 407 586 702 876 1100 1527 1893 2112 2275 2300 2335 2281 2255 2244 2314 2257 2128 2088 2085 1706 853 999 1117 1246
5 0 2 185 437 606 458 696 1201 982 977 1051 699 948 1287 1674 2125 2290 2530 2413 2375 2389 2323 2242 2049 1820 2236 1886 1005 891 692 721 379
0 0 0 0 0 0 0 0 0 0 55 1226 1961 1192 919 1326 1822 2209 2477 1887 1857 2317 2377 2421 2448 2031 1678 1098 761 469 146 2 50
0 0 0 0 0 0 0 0 0 0 0 0 464 1135 1245 1151 1475 1936 1460 1076 700 831 1216 1374 770 331 147 1 0 0 28 9 4
0 0 0 0 0 0 0 0 0 0 0 0 224 505 992 1222 1298 1140 1021 1096 901 945 204 180 44 0 0 0 0 0 21 0 0

GFSFLT1_con_mlcape_027.txt.gz
CAPE
266 436 525 657 717 744 661 593 535 445 476 538 599 595 616 767 840 960 909 815 851 952 916 962 1139 1287 1403 1384 1289 1219 956 776 498
0 219 446 480 649 697 626 679 549 527 490 605 657 625 631 662 804 840 882 852 892 901 1049 1005 1256 1305 1418 1541 1481 1278 999 692 387
0 0 99 307 590 607 593 536 608 476 543 590 724 737 720 735 759 830 884 940 820 885 1032 1067 1096 1365 1554 1556 1418 1349 1139 923 508
0 0 0 0 251 584 638 500 504 526 575 672 771 809 821 798 813 875 901 945 932 921 1061 1117 1209 1341 1363 1475 1322 1353 1264 1146 745
0 0 0 0 29 187 362 523 441 521 597 729 790 866 932 909 928 956 923 909 946 994 1005 1123 1215 1356 1382 1445 1348 1385 1293 1261 966
0 0 0 0 4 30 136 347 458 424 538 626 797 958 1002 1089 1076 1069 1044 1011 1055 1088 1108 1140 1189 1344 1377 1426 1426 1361 1264 1339 1271
0 0 0 0 0 1 23 135 302 397 482 634 765 904 1015 1080 1121 1143 1169 1160 1177 1172 1215 1158 1206 1329 1440 1460 1425 1369 1333 1262 1372
0 0 0 0 0 0 1 72 229 267 445 605 736 925 974 1081 1214 1339 1367 1274 1247 1298 1363 1242 1277 1298 1419 1482 1376 1268 1354 1307 1428
0 0 0 0 0 0 0 24 149 252 343 489 732 826 808 1040 1387 1471 1438 1402 1358 1339 1363 1352 1455 1451 1442 1441 1397 1191 1078 1304 1431
0 0 0 0 0 0 0 0 96 186 297 490 660 766 879 1070 1279 1449 1502 1531 1533 1420 1481 1445 1410 1404 1453 1474 1526 993 754 824 1393
0 0 0 0 0 0 0 0 23 250 421 471 673 842 1046 1221 1278 1378 1511 1601 1601 1619 1614 1541 1518 1475 1475 1503 1584 1071 683 651 1251
0 0 0 0 0 0 0 0 0 190 422 607 765 823 1034 1202 1194 1373 1572 1544 1566 1688 1741 1764 1732 1751 1659 1567 1642 1107 814 642 1084
0 0 0 0 0 0 0 0 9 175 366 631 711 874 962 1138 1408 1519 1558 1696 1777 1827 1769 1794 1828 1843 1782 1637 1690 1183 846 797 1309
0 0 0 0 0 0 0 0 0 0 255 511 702 1186 1545 1716 1751 1803 1882 1980 2080 2125 2113 2080 1974 1937 1831 1721 1580 1817 853 825 1407
66 287 8 0 0 0 0 12 3 3 163 738 1107 1351 1499 1765 1865 1903 2014 2120 1936 2194 2303 2344 2394 2293 2083 2022 2019 1550 933 760 1076
807 1318 879 388 4 0 3 254 623 638 718 852 1132 1244 1529 1853 2128 2268 2269 2412 2390 2316 2221 2229 2308 2230 2143 2059 1803 1863 1205 845 670
701 1009 1073 707 617 718 833 901 773 844 1166 1281 1145 1310 1494 1801 2077 2394 2631 2719 2598 2429 2166 1180 511 2247 2212 2044 1858 1663 542 477 568
0 0 0 19 33 30 10 20 11 4 96 1427 2166 1642 1504 1766 2211 2331 2721 2767 2713 2540 2282 2220 1972 2282 2268 2281 1625 720 128 132 26
0 0 0 0 0 0 0 0 0 0 1 0 157 687 1184 1306 1650 2127 2483 2868 2207 1220 1476 2067 1846 2205 2257 1563 600 0 14 108 22
0 0 0 0 78 258 377 310 220 254 233 105 142 198 618 1276 1146 1517 2445 1711 1832 1642 633 627 1282 1269 1057 641 0 0 0 0 0

GFSFLT1_con_mlcape_030.txt.gz
CAPE
22 420 719 788 950 1084 1078 832 907 969 1142 1573 1714 1603 1829 1962 2007 1595 1668 1628 1255 1217 930 927 994 1598 1806 1958 1971 2183 2093 2082 1687
0 101 672 835 889 1044 1149 1190 1211 1272 1333 1593 1670 1584 1897 2051 2060 1860 1301 1557 1865 1391 1475 1147 1252 1393 1845 1817 1965 2100 2177 1904 1770
0 28 569 772 903 968 1110 1270 1316 1378 1495 1437 1593 1688 1791 1778 1876 2037 1866 1951 1964 1744 1559 1595 1265 1575 1676 1774 1979 2256 2307 1845 1768
0 7 358 499 614 802 986 1212 1383 1467 1559 1588 1622 1725 1855 1819 1780 1840 1977 1951 2011 2098 1827 1942 1871 1781 1787 1677 2069 2296 2413 2100 1717
0 0 0 36 249 514 738 1021 1212 1399 1442 1525 1616 1684 1893 1874 1924 1918 1803 1979 2008 2147 2027 2015 2163 2070 2030 1864 1820 2062 2239 2254 1711
0 0 0 17 21 88 486 820 1065 1068 1372 1317 1398 1756 1797 1813 1841 1865 1931 2102 2081 2162 2123 2172 1873 2175 2280 2113 1954 2015 2103 2199 2229
0 0 0 0 0 21 163 519 1042 1265 990 1164 1196 1444 1648 1848 2040 1947 2016 2188 2135 2188 2255 2279 2227 2198 2534 2375 2165 2035 1982 2011 2144
0 0 0 0 33 101 363 490 900 1475 1106 1037 1115 1449 1578 1898 2156 2261 2223 2194 2206 2246 2379 2308 2367 2352 2433 2581 2194 1965 2181 2104 2012
0 0 0 0 0 0 181 592 975 1013 1414 1144 1137 1504 1688 1861 2214 2422 2343 2374 2319 2355 2339 2386 2417 2313 2494 2461 2219 1811 1559 2053 1973
0 0 0 0 0 0 140 454 712 885 1197 1196 1273 1498 1857 1963 2240 2368 2429 2515 2509 2394 2379 2502 2432 2407 2431 2527 2553 1733 1419 1396 1786
0 0 0 0 0 0 2 92 8 574 816 1295 1413 1671 1829 2079 2206 2424 2627 2619 2586 2554 2584 2526 2673 2626 2605 2598 2735 2137 1337 1210 1556
0 0 0 0 0 0 0 0 0 32 807 1100 1460 1692 1854 1998 2208 2235 2465 2683 2610 2745 2644 2594 2637 2565 2730 2855 2814 2246 1616 1277 1566
0 0 0 0 0 0 0 0 5 209 640 965 1507 1622 1786 2029 2242 2305 2337 2654 2758 2754 2670 2554 2475 2542 2696 2765 2912 2581 1677 1457 1707
0 0 0 0 0 0 0 97 244 298 669 910 1492 1751 1814 2108 2369 2477 2527 2798 2805 2802 2726 2484 2714 2711 2702 2872 2890 2798 1760 1390 1783
11 0 279 728 91 0 0 231 88 178 448 1062 1727 1884 2005 2337 2631 2391 2340 2847 3040 2864 2810 2816 2661 2577 2645 2666 2904 2564 1881 1523 1307
0 90 738 1245 0 14 895 1282 896 569 1041 1520 1686 2002 2223 2412 2688 2807 2648 2994 3135 2968 3015 2633 2599 2286 2794 2499 2821 2693 2128 1270 1064
692 1307 1995 1782 1072 869 1433 1974 2122 2302 2112 2071 2051 2090 2260 2492 2743 2847 2812 2689 2945 2710 2570 2823 2590 2664 2777 2652 2743 2760 2586 1433 808
1106 1357 1098 1237 1512 1513 1440 1554 1623 1849 2418 3053 2424 2581 2704 2781 2744 2819 3019 3044 2829 2771 2760 2774 2873 2811 2648 2604 2583 2639 2541 1367 925
787 867 727 679 680 706 756 694 691 701 725 866 1551 2070 2056 1997 2042 2298 2671 2745 3068 1848 2037 1942 2176 2332 1968 1848 1990 1869 1529 524 601
107 534 691 894 977 1072 1051 945 762 152 285 1068 1088 1142 1161 1081 1205 1162 1349 1887 2377 2529 2437 1433 1433 1625 1935 1732 1307 1264 746 377 129

GFSFLT1_con_mlcape_033.txt.gz
CAPE
21 67 533 798 974 1073 925 728 889 1052 1614 2301 2568 2428 2436 2293 2436 1928 1470 1374 907 802 703 574 906 2171 2019 2096 2182 2280 2351 2375 2192
5 42 331 613 939 1138 1237 1024 1200 1270 1556 2158 2547 2306 2522 2651 2632 2365 1846 1762 1825 1806 1390 783 1261 1946 2240 2142 2156 2290 2390 2029 2438
0 1 163 539 831 1091 1341 1261 1303 1474 1674 2178 2347 2161 2415 2592 2819 2853 2423 2365 2469 1937 1940 1782 1842 1499 1815 2155 2228 2318 2530 2012 2226
0 0 45 403 825 1019 1263 1358 1338 1516 1749 2128 2442 2360 2378 2396 2641 2744 2883 2410 2622 2561 2583 2647 1846 2288 2029 2171 2305 2388 2693 2295 2011
0 0 7 335 807 819 955 1267 1400 1560 1712 1787 2452 2521 2457 2459 2567 2671 2710 2853 2484 2813 2806 2655 2833 2499 2554 2424 2407 2443 2653 2622 1496
0 0 13 340 583 663 839 1045 1392 1524 1829 1694 1805 2221 2437 2714 2618 2682 2556 2774 2913 2765 2900 2950 2773 2825 2906 2746 2482 2428 2872 2850 2582
0 0 0 66 108 183 616 859 1463 1758 1688 1729 1791 1926 2059 2348 2807 2672 2762 2757 3037 2961 3042 3028 2955 2827 2990 3012 2912 2645 2750 2819 2811
0 0 0 0 5 98 254 823 1415 1788 1582 1802 1796 2065 2171 2339 2695 2966 2968 2890 2972 3111 3131 3143 3089 2989 2995 3330 3180 2643 2712 2556 2753
0 0 0 0 0 0 176 367 1223 1568 1906 1715 1790 2171 2203 2473 2783 3096 3202 3212 3129 3293 3152 3252 3215 3110 3072 3062 3159 2536 2171 2695 2766
0 0 0 0 0 0 60 301 698 1125 1878 2055 1714 1986 2422 2424 2769 3125 3350 3428 3434 3313 3341 3347 3230 3193 3321 3211 3258 2626 1942 1894 2694
0 0 0 0 0 0 0 0 95 865 1032 2189 2193 2101 2239 2568 2683 3080 3395 3561 3535 3562 3557 3452 3461 3476 3458 3409 3454 3034 2135 1710 2101
0 0 0 0 0 0 0 0 0 114 963 1481 2260 2421 2410 2442 2888 3039 3378 3436 3536 3649 3602 3547 3510 3570 3598 3569 3477 3107 2644 1928 2003
5 0 0 0 0 0 0 0 0 0 50 758 2050 2182 2704 2750 3077 3217 3364 3534 3673 3731 3702 3567 3421 3480 3608 3636 3659 3386 2717 2304 2398
262 337 241 42 21 0 0 0 0 122 154 312 1324 2194 2640 3038 3119 3440 3422 3492 3722 3860 3824 3401 3534 3448 3530 3600 3549 3694 2812 2327 2712
258 535 431 171 144 641 805 30 118 801 907 1080 1782 1992 2480 2815 3201 3183 3151 3457 3742 4011 3906 3710 3605 3651 3599 3671 3751 3358 3072 2367 2351
674 748 420 0 84 1127 250 351 451 890 1433 2237 2236 2611 2906 3039 3273 3499 3188 3624 3787 3683 3800 3466 3494 3396 3724 3644 3665 3756 3072 2201 2040
801 806 1085 1610 1634 1320 711 1713 2090 1802 1816 2268 2392 2920 3131 3313 3508 3541 3462 3010 3399 3295 3212 3343 3256 3175 3301 3331 3399 3211 3623 2857 1739
805 1307 1957 1719 2144 2314 2483 2831 3064 3119 3186 2801 2731 2787 2834 2895 2841 3099 3457 3447 2781 3117 3157 2931 3063 3133 2967 2972 2998 2929 3094 3357 3163
1485 1361 1427 1600 1694 1748 1622 1564 1584 1668 1721 2924 3334 3114 3105 2910 2736 2866 3085 3118 3401 2703 2567 2291 2161 1666 1688 2639 2189 2082 2132 2562 2349
963 1159 1292 1523 1713 1651 1585 1472 874 920 1518 1724 1896 2098 2063 1882 1645 1667 1768 2406 2575 2495 2343 1907 1729 1328 1307 882 1045 1418 1597 1440 1670

GFSFLT1_con_mlcape_036.txt.gz
CAPE
96 420 522 1025 1183 989 716 653 877 1207 1965 2068 2195 2096 2282 1502 2217 1962 766 1769 892 418 967 1079 1823 1595 2189 1998 1792 1955 2337 2610 2243
68 107 279 881 1212 1223 924 707 900 1126 1670 2234 2408 2109 2608 2458 1462 2496 1844 1309 1552 1464 784 1297 1250 1859 2164 1903 2217 2435 2303 2205 2618
25 32 151 687 1105 1390 1228 925 913 1078 1625 2115 2424 2635 2422 2622 2189 2189 2404 1854 1746 1271 1781 939 1677 2163 2067 2318 2146 2696 2413 2566 2162
8 19 138 536 1154 1331 1530 1273 1159 1156 1363 2106 2544 2617 2610 2554 2678 2195 2135 2362 2205 2544 1669 2530 1368 2776 2324 2334 2510 2453 2669 2330 2241
0 8 277 450 956 1292 1603 1661 1443 1463 1538 1866 2466 2913 2819 2548 2577 2832 2561 2085 2385 2687 3016 2111 2995 2133 2273 2639 2360 2545 2581 2655 1984
0 0 14 375 832 1117 1558 1725 1740 1767 1730 1748 2414 2841 2850 2713 2553 2580 2778 2813 2381 2612 2722 3018 2571 3077 2722 2319 2481 2420 2697 2715 2684
0 0 0 330 733 1028 1413 1657 1848 1880 1961 1959 2024 2637 2894 2722 2764 2752 2803 2945 3046 2632 2633 2809 2836 2858 2901 3117 2758 2710 2663 2778 2996
0 37 188 375 600 1245 1156 1459 1793 1967 2014 2087 2096 2160 2736 2817 2781 2874 2837 2969 3050 3241 3023 2813 2973 2996 3022 2985 3183 2939 2762 2725 3002
0 0 0 0 23 17 528 1497 1962 1860 2040 2249 2195 2165 2387 2671 2847 2875 3159 3020 3124 3193 3362 3295 3180 3289 3181 3049 3178 3120 2763 2754 2883
0 0 0 0 0 0 19 227 1826 2304 2224 2281 2439 2262 2530 2584 2701 2848 3033 3317 3215 3237 3364 3508 3431 3449 3413 3164 3199 3073 2766 2492 2788
0 0 0 0 0 0 0 40 244 1326 2388 2285 2176 2560 2558 2863 2921 2893 3172 3374 3492 3510 3496 3608 3594 3647 3591 3483 3403 3095 2741 2517 2527
0 0 0 0 0 0 0 52 151 548 881 2210 2465 2346 2526 2590 3062 3132 3258 3488 3610 3743 3797 3730 3864 3780 3789 3678 3530 3282 2882 2528 2539
192 411 560 551 298 173 0 7 0 1185 1074 1727 2134 2246 2311 2732 2773 3076 3262 3592 3880 3953 3943 3946 3886 3902 3820 3828 3692 3527 3051 2680 2823
202 419 528 617 458 313 399 69 46 100 834 1358 1890 2386 2726 2841 2963 2919 3298 3469 3929 4099 4128 4100 4038 3957 3952 3910 3831 3813 3340 2784 3150
173 539 904 647 532 377 356 1110 418 80 398 406 1027 1604 2784 3037 3365 3255 3292 3643 3847 4055 4124 4106 4018 3994 3954 4025 3940 3816 3702 2981 2781
568 1024 1131 955 586 102 118 1102 684 278 1331 2130 1762 2254 2645 2942 3440 3723 3307 3660 3835 3990 4118 4116 4092 3993 3996 3954 3847 4121 3741 3328 2787
440 1355 1370 2431 2252 2174 1813 920 1774 2309 1942 1981 2659 2965 3170 3381 3413 3738 3792 3468 3962 3797 3837 4080 4147 4081 3980 3802 3942 4066 3788 3547 2697
45 391 1949 1847 2340 2891 2913 3427 3387 3334 3455 3265 2891 2861 3690 3945 3765 3729 3996 3961 3462 4082 3894 3879 3936 3964 3670 3487 3772 3361 1930 2604 3483
55 725 1606 1819 1852 2172 2214 2115 2177 2322 2344 3189 3497 3264 3337 3297 3279 3381 3660 4004 3723 3124 3042 2577 1940 1579 2024 2682 1764 1302 1533 1981 2174
106 589 1485 1494 1717 1701 1668 1700 1386 1281 1993 2435 2736 2973 3261 3323 3019 3207 3482 3216 3868 3771 1260 389 604 520 279 102 114 209 456 579 737

GFSFLT1_con_mlcape_039.txt.gz
CAPE
516 609 350 485 450 398 368 359 628 998 969 894 1036 1252 1025 791 1662 1257 802 819 456 179 766 1135 1160 1600 1755 1490 1310 1284 1698 1611 1449
468 609 643 667 496 474 353 402 792 952 1328 1123 1238 1488 1512 1030 958 1969 1177 528 1105 770 482 991 1215 1417 1868 1771 1487 1118 1503 2253 1649
140 524 696 916 660 575 437 386 709 1077 1546 1484 1443 1511 1706 1546 908 924 2047 1120 538 1373 634 426 1301 1449 1740 1795 1587 1380 1228 2146 2155
34 498 706 1072 940 755 607 464 718 948 1322 1770 1791 1724 1529 1742 1579 1055 1460 1911 953 824 1315 1353 583 1363 1792 1662 1728 1700 1578 1599 2080
0 275 356 1161 1182 1026 863 648 734 914 1077 1632 1761 1862 1730 1843 2116 1926 1201 1810 2103 690 1397 1104 1928 1688 1770 1989 1771 1716 2109 2012 1896
0 23 334 1150 1355 1282 1110 861 741 895 1057 1392 1831 2056 2123 1990 1967 2270 1858 1543 1644 2271 1286 1744 1311 2232 2186 2073 2110 2051 1936 1946 1866
0 37 395 1115 1278 1429 1374 1133 954 936 993 1341 1877 2076 2222 2251 2272 2295 2423 2107 1668 1426 2254 1898 2194 1819 2350 2405 2157 2069 2182 2066 1945
0 5 326 942 1185 1307 1573 1462 1236 1189 1115 1245 1537 2160 2336 2369 2464 2350 2334 2351 2443 2153 1549 2231 2210 2348 2396 2448 2455 2373 2196 2173 2126
0 26 202 526 975 1263 1538 1690 1602 1464 1457 1417 1466 1977 2229 2559 2554 2519 2313 2362 2296 2608 2565 2026 2259 2440 2311 2545 2684 2633 2293 2300 2310
0 0 0 0 0 500 1473 1708 1800 1788 1809 1680 1717 1715 2160 2447 2661 2555 2552 2428 2588 2549 2647 2834 2496 2238 2578 2433 2657 2635 2569 2473 2505
0 0 0 0 0 0 0 551 1932 1845 1902 2094 1959 1937 1955 2188 2541 2700 2651 2693 2612 2774 2821 2930 3036 3011 2734 2831 2834 2648 2473 2493 2750
191 143 94 127 147 37 0 0 6 2049 2060 2182 2325 2222 2217 2213 2540 2687 2855 2788 2925 2947 2964 3061 3099 3306 3264 3136 3092 2873 2637 2389 2681
286 397 430 240 119 147 143 316 270 1023 2195 2328 2347 2469 2613 2533 2563 2709 2758 2899 2915 3069 3216 3161 3246 3212 3434 3389 3315 3183 2751 2642 2765
635 904 863 815 440 259 303 277 299 863 1292 1976 2035 2272 2437 2773 2941 2948 3012 3034 3157 3267 3400 3487 3468 3515 3510 3660 3604 3518 3116 2736 3056
408 615 1246 1755 1220 743 273 139 1088 644 183 1415 2028 2254 2278 2169 2346 2637 3082 3277 3437 3601 3664 3693 3688 3722 3763 3728 3725 3644 3396 2969 2925
16 137 662 1769 2000 2238 2001 983 858 844 1446 1601 2103 1825 2058 2486 2565 2596 2616 2988 3326 3729 3918 3973 3940 3906 3923 3907 3829 3779 3603 3334 2983
14 0 110 1321 1866 2197 3103 2829 2325 2236 2423 2221 1504 2149 3013 2582 2940 3253 3176 3254 3382 3613 3906 3975 4021 4006 3915 3767 3697 3734 3711 3482 2821
50 13 0 141 1310 1749 2162 2367 2545 2509 2529 2799 2981 1624 2769 3440 3336 3363 3425 3435 3661 3731 3780 3836 3823 3759 3694 3616 3687 3375 2184 2298 2681
0 10 0 0 925 1392 1438 2016 1896 1696 1736 2324 2971 3394 3133 3809 3526 3536 3592 3704 3385 1252 2281 2312 2211 2103 3304 1687 1112 599 634 595 738
0 0 0 0 347 891 1428 1367 1368 1125 1301 1944 2416 2740 3346 3285 3423 3535 3513 3739 3659 2925 379 15 102 107 15 17 4 0 0 0 2

GFSFLT1_con_mlcape_042.txt.gz
CAPE
128 86 323 370 366 232 159 466 457 332 322 401 616 471 439 511 486 459 410 486 364 154 133 221 345 639 1155 1547 1339 1142 1031 1141 1088
89 295 429 332 417 302 254 384 553 520 379 345 620 622 608 693 662 636 601 593 393 240 216 503 501 689 958 1499 1426 1216 1186 1120 1218
21 545 528 392 366 374 347 372 525 636 559 426 480 814 671 593 785 1103 865 656 598 536 264 508 774 876 1170 1361 1446 1302 1241 1386 1371
117 550 567 450 363 467 404 363 588 745 739 643 667 780 948 799 597 626 1394 1245 600 529 836 615 673 1005 1147 1353 1407 1429 1292 1144 1516
94 541 646 561 475 544 468 414 628 678 977 879 861 888 1013 1113 1146 857 670 1270 1390 850 572 695 895 974 1290 1484 1557 1543 1430 1176 1211
0 220 718 628 570 563 564 430 520 856 968 1117 1060 1120 1194 1323 1386 1288 979 745 1255 1429 1034 782 911 1392 1098 1129 1394 1656 1626 1447 1270
0 0 605 801 753 667 639 474 491 785 993 1416 1419 1448 1442 1327 1442 1576 1436 1145 888 1419 1529 999 713 1313 1490 1810 1665 1596 1620 1656 1535
0 8 594 974 911 833 778 620 497 735 908 1229 1555 1615 1646 1555 1464 1626 1857 1652 1389 1182 1416 1749 1274 1029 1547 1718 1930 2024 1845 1701 1577
0 0 536 1058 1034 1005 961 816 667 744 865 1072 1434 1590 1646 1689 1779 1706 1748 1929 1850 1647 1462 1304 1717 1766 1680 1620 1997 2071 2036 2075 1902
0 18 558 1062 1132 1122 1141 1041 877 796 894 981 1406 1550 1693 1882 1912 2065 2040 2032 2094 2101 1871 1700 1239 1434 1789 1762 2075 2171 2049 2041 2184
0 0 84 505 918 1161 1323 1311 1132 984 949 1027 1135 1486 1789 1922 2198 2180 2258 2226 2163 2136 2237 2247 2002 1584 1627 1784 1923 1999 2035 2104 2308
263 92 21 82 149 347 996 1605 1649 1464 1355 1355 1315 1366 1477 2011 2176 2390 2383 2410 2330 2299 2340 2351 2434 2413 2213 1930 2015 2048 1952 1942 2222
642 1021 571 149 114 143 208 226 1049 1760 1820 1806 1712 1650 1692 1692 2191 2356 2468 2439 2489 2495 2510 2587 2579 2610 2728 2735 2625 2380 2207 2108 2378
336 731 1382 1551 908 446 234 354 266 776 1795 1997 2053 2000 1837 1860 1869 2218 2414 2541 2586 2645 2718 2657 2707 2767 2790 2876 2987 3029 2510 2270 2732
42 373 1085 1699 2177 1439 1019 330 740 409 1022 1963 2114 2100 2270 2210 2214 2210 2420 2512 2649 2726 2724 2867 2914 2884 2949 3014 3035 3061 2746 2539 2592
0 0 105 1033 1750 2428 2467 2010 1902 1799 1980 1805 2016 2309 2450 2458 2609 2689 2717 2704 2699 2796 2900 2958 3065 3144 3177 3253 3365 3416 3137 2884 2767
0 0 0 243 1191 1381 2021 2081 2284 2247 2191 2254 2258 1145 2240 2267 2415 2554 2681 2894 2906 2962 3131 3257 3336 3441 3493 3523 3572 3604 3624 3108 2661
0 0 0 0 407 818 1378 1766 1608 1447 1315 1423 2331 2541 1979 1652 2587 2087 2238 2413 2434 3070 3240 3330 3424 3612 3709 3721 3625 3442 3140 3206 3158
0 0 0 0 4 363 775 1381 1151 1069 965 1217 1495 2421 2710 2902 2847 2985 3100 2466 1835 550 1207 2276 3144 3312 3527 1678 1989 1706 1594 1583 1268
0 0 0 0 67 318 805 1089 1049 1052 1165 1586 1631 1615 1677 2547 3415 3604 3467 3262 2574 2186 396 9 257 1093 1422 1172 621 143 77 105 78

GFSFLT1_con_mlcape_045.txt.gz
CAPE
131 205 391 494 392 360 340 338 185 85 58 71 27 22 26 47 29 5 2 0 56 202 197 264 320 614 747 681 892 1041 853 748 750
132 84 110 194 500 316 280 381 315 222 112 137 96 72 94 116 94 100 54 29 5 142 186 268 170 287 570 701 894 1201 1102 832 862
137 127 66 100 331 329 181 359 378 311 200 245 251 174 173 210 210 216 215 153 64 62 261 264 247 198 297 485 718 1159 1312 1003 888
3 131 122 68 144 348 247 338 471 348 300 253 306 398 322 302 346 359 390 364 272 265 205 305 412 356 475 619 634 909 1271 1260 1161
0 34 102 127 153 308 326 251 428 469 330 270 247 433 449 435 497 558 619 507 405 336 460 320 336 505 576 787 877 895 1112 1218 1313
0 0 14 149 270 283 378 330 246 464 490 374 265 331 546 564 542 507 620 943 899 542 456 542 556 698 843 740 969 1116 1110 1142 1272
0 0 0 78 359 353 405 376 266 398 567 530 457 456 518 737 804 740 563 515 792 1064 890 741 747 696 701 1054 1069 1143 1271 1295 1358
0 0 0 67 340 390 428 382 297 445 548 738 687 693 726 795 947 1028 985 787 652 846 1107 925 842 996 1061 881 1148 1258 1120 1186 1268
0 0 56 174 356 469 465 434 391 414 673 879 982 912 884 893 974 1139 1180 1130 1103 888 1006 1189 968 757 775 1090 1104 1252 1317 1573 1560
0 0 51 309 404 500 504 494 428 496 753 964 1230 1220 1192 1237 1233 1241 1369 1434 1422 1256 1071 1111 1247 1178 939 884 1131 1122 1201 1361 1675
5 0 82 250 551 630 567 549 488 492 733 938 1315 1474 1521 1574 1604 1539 1501 1637 1740 1677 1508 1353 1225 1187 1437 1420 1428 1311 1182 1307 1603
237 160 125 433 755 753 716 727 639 616 796 966 1134 1353 1541 1685 1759 1759 1848 1769 1739 1837 1934 1874 1700 1577 1354 1257 1495 1473 1428 1387 1673
435 749 622 473 673 924 1077 1003 848 805 886 964 1108 1306 1503 1630 1767 1873 1929 1990 1958 1980 2092 2084 2189 2213 2172 1843 1643 1541 1392 1323 1704
90 781 1275 1160 670 724 815 1033 1250 1234 1192 1229 1248 1134 1190 1536 1794 1904 2058 2084 2149 2168 2189 2247 2291 2305 2332 2400 2311 2235 1705 1513 1982
11 512 1042 1305 1217 1091 449 326 1352 1495 1561 1478 1533 1501 1395 1415 1533 1900 2119 2215 2271 2329 2379 2394 2415 2446 2467 2498 2584 2508 2284 2002 1923
0 0 239 924 1481 1804 1916 1884 1761 1909 2210 2242 2109 1951 1976 1845 1739 1731 1998 2241 2343 2415 2447 2510 2538 2550 2573 2599 2676 2750 2631 2436 2209
0 0 0 121 960 1461 1556 1438 1403 1330 1479 1976 2112 1977 2309 2263 2311 2198 2102 2209 2294 2399 2559 2597 2633 2706 2815 2852 2897 3019 2967 2528 2349
0 0 0 0 154 611 1123 1024 882 909 1108 1278 1668 1994 2071 2181 2139 2413 2507 2195 2076 2569 2648 2690 2768 2801 2855 2912 3039 3175 3304 3385 3037
0 0 0 0 1 216 640 865 852 936 1077 1224 1166 1379 1737 1955 2438 2464 2327 1886 1269 163 804 1648 2447 2798 3253 2187 2381 2853 2832 2702 2616
0 0 0 0 0 19 478 799 848 776 947 948 993 909 1088 1432 1934 2844 2767 2193 1788 1629 260 498 1224 2009 2426 2491 2055 1380 1290 1022 745

GFSFLT1_con_mlcape_048.txt.gz
CAPE
235 284 243 184 158 147 114 99 64 14 0 0 0 0 0 0 0 0 0 0 0 0 0 0 190 325 524 648 784 822 823 783 800
136 190 189 338 339 224 161 135 92 58 37 0 0 0 0 0 0 0 0 0 0 0 0 0 150 307 375 556 723 743 881 889 803
58 160 103 123 376 333 261 190 155 77 48 30 19 0 0 0 0 0 0 0 0 0 0 43 184 309 424 410 560 620 808 1055 993
6 123 129 134 282 340 286 252 235 129 66 52 33 26 32 43 40 16 13 7 12 13 0 0 171 279 283 293 292 462 673 946 1280
0 41 107 120 121 181 321 237 268 280 130 66 76 89 93 98 101 92 79 69 60 67 17 5 56 349 348 326 322 457 607 646 1118
0 2 70 134 121 88 255 197 203 300 254 190 133 173 195 174 191 208 171 176 177 162 166 78 92 293 420 424 502 578 705 842 908
0 0 0 7 70 74 133 248 212 325 323 276 217 248 368 343 331 325 334 335 327 266 283 333 248 232 376 464 449 671 747 889 1044
0 0 0 0 2 73 114 287 208 370 397 332 280 285 437 486 447 430 429 498 627 663 408 357 383 372 364 575 688 782 1054 1118 1028
0 0 0 0 0 37 164 288 316 336 459 465 369 331 400 510 536 509 462 396 445 701 822 720 643 592 578 472 654 684 637 951 1294
0 0 0 0 0 13 198 308 342 334 471 566 536 475 430 488 618 710 702 650 557 502 551 822 842 815 788 750 788 703 662 684 975
0 52 0 0 24 141 240 324 334 306 461 666 653 616 656 700 752 843 909 967 949 865 725 688 903 1002 960 852 806 699 599 617 960
18 232 120 0 150 234 273 361 339 355 578 713 851 843 876 934 990 982 1039 1131 1154 1153 1136 1054 969 1059 1178 1168 1064 808 658 604 964
51 236 697 208 328 358 364 378 358 464 654 825 1033 1056 1134 1269 1283 1235 1204 1184 1252 1424 1522 1436 1403 1370 1342 1277 1367 1281 1013 959 1247
4 118 591 675 500 577 547 500 464 561 662 847 981 1197 1370 1462 1527 1519 1510 1501 1533 1610 1702 1805 1862 1833 1809 1790 1576 1559 1217 1063 1559
2 121 366 663 1025 929 543 566 621 674 741 746 835 1035 1234 1433 1550 1694 1777 1810 1917 1947 1924 1966 2023 2073 2151 2226 2262 1954 1721 1445 1318
0 0 146 461 927 992 858 1048 1008 1048 1319 1162 990 989 1116 1265 1491 1661 1900 1941 1963 2073 2147 2186 2218 2269 2312 2346 2329 2393 2023 1853 1604
0 0 0 55 491 705 786 957 1374 1654 1892 1949 1860 1622 1463 1318 1416 1569 1815 2031 2126 2141 2240 2330 2366 2364 2393 2397 2434 2502 2528 2250 1927
0 0 0 0 195 566 616 663 859 1058 1217 1600 1976 2057 2104 2151 2029 1734 1737 1707 1852 2300 2390 2314 2408 2482 2525 2583 2628 2616 2698 2710 2680
0 0 0 0 9 335 564 652 734 1010 1023 909 989 1296 1658 1832 2266 1912 2241 1638 1133 150 517 1065 1530 1974 2541 2159 2244 2710 2734 2761 2731
0 0 0 0 0 1 191 508 432 306 235 247 227 399 556 905 1345 2435 2267 1677 1648 1691 274 141 655 1359 2082 2578 2695 2246 2214 2149 1950

GFSFLT1_con_mlcape_051.txt.gz
CAPE
319 377 340 314 226 205 213 124 140 71 31 44 36 53 89 87 152 185 184 257 201 251 207 370 851 826 1017 1110 1369 1470 1606 1555 1564
198 382 404 353 333 275 258 221 193 127 105 68 65 75 129 171 170 174 170 226 284 234 248 172 538 591 754 978 1101 1304 1549 1531 1701
98 318 476 451 401 362 304 242 265 205 177 121 118 89 153 226 266 269 272 317 206 231 247 182 108 453 741 1004 1049 1246 1536 1459 1710
26 146 302 483 594 510 415 314 287 300 239 225 185 106 104 188 313 338 327 311 303 294 279 287 270 409 632 927 1099 1213 1284 1293 1507
0 52 145 296 491 641 571 501 416 312 291 300 272 244 190 155 268 311 328 318 351 385 335 356 396 452 653 848 973 1147 1163 1071 1169
0 19 136 275 259 413 661 653 618 491 400 322 351 335 287 272 288 333 333 382 443 482 445 372 398 501 489 706 930 1016 1102 1093 1223
0 0 0 93 199 375 651 694 710 672 581 475 424 407 404 450 457 461 452 494 546 578 581 473 470 565 614 654 1069 1240 1274 1274 1298
0 0 0 8 66 134 299 698 697 766 783 635 523 519 535 562 574 606 613 682 713 750 754 706 629 635 701 761 926 913 1182 1330 1379
0 0 24 1 0 99 194 319 675 666 781 764 680 660 686 712 722 715 737 810 883 904 844 833 859 860 872 838 891 575 644 1003 1392
0 0 6 61 28 0 106 148 527 604 755 851 800 749 806 910 916 882 901 952 1053 1132 1098 1038 929 956 1036 998 1064 662 408 480 977
0 0 0 22 220 4 6 136 362 635 832 904 883 825 855 1009 1056 1036 1063 1095 1126 1162 1343 1423 1317 1275 1311 1214 1277 916 517 323 706
0 0 15 300 613 58 13 325 567 728 955 1013 944 875 907 982 1107 1126 1205 1202 1163 1125 1111 1153 1264 1482 1536 1402 1381 996 704 595 925
0 1 187 626 277 106 219 567 740 844 966 1073 982 975 1059 1047 1084 1169 1316 1355 1362 1411 1402 1302 1286 1316 1568 1619 1547 1326 684 587 1149
0 94 318 1082 613 543 607 737 767 797 1022 1111 1205 1305 1324 1348 1312 1342 1447 1563 1719 1799 1800 1808 1816 1709 1772 1777 1705 1819 1142 672 1246
2 40 302 735 969 643 797 741 768 896 988 1330 1506 1591 1546 1580 1582 1572 1713 1786 1876 1962 2083 2141 2203 2195 2216 2226 2216 1721 1516 1049 1004
0 20 183 691 1010 1004 1276 1004 1106 1157 1338 1480 1544 1639 1717 1822 1936 1941 2072 2122 2119 2127 2248 2217 2378 2447 2477 2523 2603 2734 1911 1427 1138
0 0 75 583 991 1103 1211 1499 1622 1842 1753 1461 1334 1468 1695 1842 1933 2019 2169 2331 2393 2423 2502 2508 2530 2648 2686 2708 2804 2875 2948 2319 1601
0 0 0 75 507 695 857 1068 1161 1207 1661 2398 1969 1690 1544 1602 1810 1855 2304 2380 2411 2508 2634 2634 2740 2804 2888 2939 2982 3037 3026 3089 2919
0 0 0 0 0 135 581 591 403 382 405 575 1412 2044 2251 2278 1962 1562 1858 2503 1497 278 606 1148 1673 2137 2713 3068 2721 2791 2588 2386 2530
0 0 0 0 0 0 0 189 131 24 26 361 336 411 663 1198 1581 1924 1695 2434 1868 1754 323 87 515 1041 1704 2191 2649 2201 2257 2234 2141

GFSFLT1_con_mlcape_054.txt.gz
CAPE
472 547 638 564 420 239 296 307 225 202 386 746 876 672 818 683 561 200 413 680 419 420 269 313 538 1536 1584 1754 1703 1641 1833 1591 1403
274 388 590 704 649 520 350 411 489 491 600 741 813 633 963 993 803 541 391 628 737 561 628 279 423 827 1418 1360 1524 1690 1710 1419 1864
58 211 466 561 788 717 579 434 464 553 553 718 806 652 835 835 675 805 719 698 750 800 581 789 415 714 923 887 1171 1591 1802 1399 1658
1 114 430 501 740 807 749 615 490 598 595 664 669 745 774 797 775 790 935 827 947 1147 1068 895 1148 784 675 664 1347 1528 1707 1542 1409
0 19 187 504 631 690 785 794 667 591 583 634 704 749 964 922 995 980 912 1085 1025 1195 1367 1214 1280 1153 988 794 1056 1502 1791 1672 1184
0 6 48 269 510 638 728 891 844 715 687 555 645 810 762 746 800 875 931 1107 1141 1286 1396 1432 1264 1282 1284 1128 1033 1404 1755 1790 1593
0 0 26 126 270 368 800 870 1086 1053 830 687 535 722 703 798 856 908 868 1155 1345 1295 1444 1516 1492 1354 1349 1349 1118 1018 1408 1569 1702
0 0 0 3 71 270 724 1007 1309 1300 1006 919 759 913 811 959 1197 1157 1194 1346 1461 1413 1490 1537 1620 1568 1418 1452 1322 879 1102 1290 1397
16 0 70 29 5 228 490 812 1313 1495 1433 1184 1076 1227 1143 1236 1557 1473 1478 1555 1682 1697 1603 1594 1715 1589 1545 1483 1351 777 586 993 1114
83 32 103 152 226 161 78 601 1005 1375 1674 1396 1316 1519 1486 1501 1707 1710 1717 1761 1826 1758 1748 1760 1878 1799 1715 1715 1704 1053 560 484 786
40 3 20 139 292 409 647 91 388 1008 1373 1607 1667 1782 1717 1732 1863 1880 1956 1963 1963 2024 1910 1948 1970 1986 2052 2003 1956 1473 949 548 899
5 0 27 110 223 536 811 945 113 568 1119 1516 1791 1875 1863 1928 1989 1954 1958 1987 2037 2030 2092 2111 2094 2097 2163 2130 2113 1526 1153 888 1085
9 56 202 295 659 1032 1049 1123 157 390 1010 1300 1842 1883 1922 2022 2078 2135 2101 2154 2195 2268 2190 2232 2169 2231 2340 2320 2398 2133 1250 1021 1331
0 7 372 830 1416 1274 903 716 182 718 1173 1431 1802 1711 1712 1884 2125 2264 2309 2415 2446 2400 2211 2084 2219 2169 2297 2461 2401 2519 1617 996 1536
0 5 750 1381 1396 1142 674 656 633 1402 1578 1556 1764 1749 1782 2067 2197 2085 2144 2534 2519 2470 2452 2439 2534 2441 2416 2273 2440 2171 1942 1418 1298
0 0 109 1271 1577 1475 1236 1068 1118 1451 1751 1789 1921 1962 2101 2123 2215 2206 2251 2514 2671 2631 2705 2578 2576 2589 2544 2410 2471 2762 2123 1485 1286
0 0 0 54 1071 1371 1784 1756 1675 1779 2001 2002 2134 2228 2317 2384 2536 2484 2294 2502 2645 2558 2563 2611 2542 2642 2644 2665 2707 2886 3181 2559 1503
0 0 0 0 0 531 599 709 940 1390 2138 2096 2247 2384 2458 2620 2662 2606 2751 2696 2492 2751 2713 2166 2814 2720 2877 2970 3045 3127 3263 3449 3531
0 0 0 0 0 0 13 32 185 489 1238 1708 2410 2233 2212 2309 2368 2683 2728 2876 2286 557 844 1186 1633 1744 2349 3231 2923 2912 2968 3024 3010
3 0 0 0 0 0 0 0 2 36 311 1091 1484 2012 2673 2650 2254 2449 2684 2508 2522 1685 931 883 1210 1508 1904 2144 2150 2507 2593 2464 2089

GFSFLT1_con_mlcape_057.txt.gz
CAPE
437 553 428 289 224 168 301 361 353 343 948 1417 1493 1195 931 457 784 194 188 357 350 258 122 153 1878 1926 1571 1764 1822 1771 1839 1612 1502
218 498 499 554 403 259 279 427 605 511 760 1323 1491 1079 1269 1143 789 327 9 70 756 769 333 319 364 1175 1581 1481 1397 1625 1614 1245 1847
167 219 436 547 761 565 398 429 487 654 805 1280 1378 1194 1514 1363 1193 1075 517 638 1502 869 951 789 694 670 887 1419 1414 1447 1878 1332 1359
0 164 297 492 833 860 717 593 534 624 746 1014 1202 1253 1354 1093 1204 1196 894 1461 1508 1629 1290 1474 1319 1256 1075 1164 1235 1309 2112 1744 1505
0 0 156 447 556 787 878 858 762 740 718 744 1112 1260 1495 1239 1344 1077 944 905 1475 1679 1701 1670 1777 1783 1504 1342 946 1418 2028 1772 1160
0 0 66 278 406 527 931 992 987 825 814 798 841 1226 1310 1362 1290 1298 1018 1470 1403 1580 1862 2112 1747 1891 2031 1695 1115 1520 2024 2162 1920
0 2 18 113 304 499 800 1041 1318 1257 933 873 763 895 1008 1242 1457 1481 1363 1533 1717 1808 2010 2194 2198 2178 2174 2018 1738 1406 1492 1939 2124
0 3 23 70 154 517 1157 1198 1575 1505 1195 1148 975 998 1009 1171 1507 1668 1766 1554 1916 1964 2138 2271 2385 2453 2349 2298 1877 1570 1506 1783 1998
10 0 0 0 57 253 562 932 1575 1833 1544 1470 1216 1275 1168 1183 1563 1774 1746 1708 1874 2094 2183 2330 2475 2404 2468 2383 1759 1278 1058 1325 1518
84 73 26 53 85 62 193 566 1076 1556 1867 1611 1587 1562 1593 1441 1671 1839 1836 1871 1987 2178 2251 2352 2515 2566 2554 2576 2471 1334 926 700 1174
160 181 161 201 297 300 282 333 631 978 1560 1932 1827 1830 2075 1739 2017 2054 2090 2164 2231 2383 2492 2364 2539 2611 2644 2700 2721 2023 1095 723 965
382 403 434 394 363 344 454 628 384 456 1163 2124 2032 2320 2035 2262 2103 2417 2491 2433 2493 2684 2690 2661 2615 2774 2792 2814 2831 1984 1409 1020 1108
96 200 433 647 733 736 825 942 977 888 611 1525 2287 2364 2313 2462 2373 2628 2750 2815 2870 2911 2842 2826 2506 2667 3010 3121 3162 2722 1640 1281 1611
0 2 301 495 1229 1298 1422 1594 1336 1225 693 1145 2037 2384 2538 2810 2697 2812 3007 3129 3145 3176 3137 2558 2938 2780 2936 3054 2882 3275 2104 1347 1921
0 0 0 68 1512 1890 1768 1693 1714 1817 1543 1095 1959 2286 2558 2775 2937 2719 2757 3148 3263 3250 3217 3100 3299 3169 3227 2822 3318 2831 2369 1764 1566
0 0 0 2 819 2522 2318 1611 1050 1576 1411 1739 2193 2449 2660 2782 2937 3018 2827 3143 3350 3193 3220 2776 2730 2864 2653 2439 2342 2821 2300 1718 1706
1 0 0 2 77 687 1438 1624 2078 2029 2171 2176 2573 2632 2763 2860 2913 3010 2897 3020 3151 2916 2750 2729 2611 2510 2443 2260 1930 1592 2095 2079 1348
13 3 4 2 3 4 4 32 428 915 1845 2355 2331 2666 2653 2754 2712 2713 2877 2927 2828 2747 2720 2473 2605 2255 1925 1694 1993 2153 2469 2816 3072
35 3 11 0 1 0 1 0 0 18 420 1875 2411 2583 2692 2671 2598 2776 2806 2813 2105 806 1295 1276 1470 1384 1842 2633 1949 2110 2214 2527 2900
12 13 0 19 7 0 0 2 0 0 0 492 2226 2481 2775 2850 2710 2911 3013 2897 2673 2380 1247 1096 1294 1615 1886 1612 1951 2150 1962 1693 2255

GFSFLT1_con_mlcape_060.txt.gz
CAPE
269 369 279 328 328 342 239 192 183 424 799 714 851 1283 331 401 980 261 344 1087 267 869 473 1099 1504 1757 1577 1672 1624 1661 1479 1627 1797
59 13 14 398 438 323 456 375 270 483 824 1012 1153 846 1231 216 823 825 316 648 669 577 566 935 1720 1625 2193 1764 1934 1696 1587 1357 1356
2 1 2 42 588 442 526 482 547 443 935 1221 1437 1311 1415 1051 118 843 497 161 626 538 828 272 1939 2085 1844 1851 2006 1940 1879 1659 1438
0 0 3 128 200 605 485 598 692 628 636 1479 1691 1686 1413 1316 1042 531 324 634 79 1111 643 1729 798 1707 1814 1854 1647 2076 1967 1388 1690
128 240 290 16 0 1 592 576 688 936 795 991 1638 1785 1589 1470 1402 918 719 135 1006 977 1255 1053 1984 1244 1900 1387 1853 1868 1821 2008 1432
196 124 85 5 62 192 691 589 693 870 947 922 1446 1755 1622 1637 1575 1490 1049 723 356 1326 1443 1954 1545 2094 1590 1986 1688 1646 1696 2159 2063
0 193 231 256 329 409 909 825 817 885 876 963 1064 1527 1585 1565 1598 1510 1370 1439 658 1578 1706 1501 1805 1831 2285 2139 1961 1625 1600 2377 2383
0 0 15 12 89 527 1071 1150 1170 1129 1130 983 1034 1100 1380 1627 1734 1598 1592 1350 1421 741 1462 1911 2022 2074 2294 2451 2393 1965 1562 1816 2350
243 56 47 19 24 130 541 1240 1460 1427 1286 1284 1168 1124 1314 1415 1690 1699 1673 1438 1522 1646 1476 1716 2118 2303 2335 2550 2535 2031 1463 1600 1725
282 513 262 308 241 265 270 274 545 1782 1727 1460 1417 1362 1340 1400 1659 1796 1700 1846 1506 2003 1837 2052 2172 2317 2455 2558 2660 1971 1306 1298 1632
39 354 431 285 240 204 195 1 39 2071 2061 1839 1846 1530 1673 1532 1514 1712 1905 1890 2046 1831 2214 2114 2304 2402 2466 2567 2663 2436 1483 1022 1307
54 18 3 324 384 412 554 645 741 1020 2073 2081 1765 2102 1699 1965 1578 1827 1912 2039 1993 2130 2126 2353 2362 2548 2596 2523 2649 2470 2043 1180 1000
0 0 0 128 430 626 914 849 863 858 981 2536 2089 1783 2250 1950 2050 1870 2112 2134 2162 2236 2286 2362 2538 2498 2654 2814 2792 2579 2174 1689 1578
0 0 1 2 37 332 869 1781 1383 1068 937 1121 2631 2265 1926 2467 2470 2092 2397 2421 2427 2500 2559 2646 2710 2718 2775 2996 3008 3078 2348 1603 2019
0 0 0 1 3 339 1996 2524 2401 1588 1508 1183 1588 2660 2406 2421 2517 2724 2499 2855 2914 2822 2843 2897 2904 2946 3011 3030 3344 3107 2633 2169 1633
1 2 0 1 3 122 159 408 1512 2824 2361 2111 1560 2045 2669 2654 2923 2903 2739 3005 3119 3231 3178 3164 3090 3074 3194 3204 3218 3465 2834 2204 2048
0 3 2 0 4 2 3 2 3 602 1322 2640 2463 1543 3010 2858 3156 3139 2970 3074 3240 3347 3327 3318 3265 2998 3301 3196 3144 3204 3529 2519 1806
0 1 0 1 1 1 1 2 4 5 155 1156 2446 2379 3082 3170 3244 3099 3171 2834 3311 3321 3233 3228 3197 3169 2868 3169 2981 2672 2610 2792 2269
7 0 0 2 0 0 0 2 3 7 1 119 1733 3296 3301 3188 3176 3163 3204 2889 2520 1554 2667 2348 2777 2534 2897 2029 1760 1395 1461 1090 2073
0 0 0 2 1 0 0 0 2 4 0 0 411 1752 2889 2918 2772 2915 2991 2956 2724 2338 1053 521 896 1660 1735 2316 1977 1890 1772 1703 1533